Погода в Хейстингсе

Новая Зеландия     39°37′57″S   176°50′00″E
темп.,
°C
ветер,
м/с
пор.,
м/с
влажн.,
%
обл.,
%
осадки,
мм/ч
давл.,
гПа
погр.,
м
1 декабря, ср
ср101:00+15ююз1299100 3.1 101867
04:00+15ююз2699100 1.2 1018253
07:00+15ююз3898100 1.4 1020463
10:00+17ю269458 0.3 1021700
13:00+18ююв458671 1.9 1022775
16:00+17ююв4693100 2.8 1022743
19:00+15ююв269767 4.1 1024524
22:00+14юз239887 0.1 1026102
2 декабря, чт
чт201:00+13юз129981 0.1 102670
04:00+12ю119868 0.0 102526
07:00+14вюв019779 0.1 102659
10:00+17всв237182 0.1 1026946
13:00+21всв4351100 0.3 10251496
16:00+20всв5454100 0.0 10251331
19:00+17всв3674100 0.0 1025752
22:00+14всв279884 0.1 1026240
3 декабря, пт
пт301:00+14св179993 0.3 1026317
04:00+14св139995 0.1 1025125
07:00+14ссв249897 0.1 1026202
10:00+19св456592 0.0 1026909
13:00+22св55531 0.0 10241058
16:00+22всв45573 0.0 1022933
19:00+19всв357440 0.0 1023543
22:00+14ююз1197100 0.0 102329
4 декабря, сб
сб401:00+13ссв1197100 0.0 102311
04:00+12ссв1197100 0.0 102315
07:00+14ссв1293100 0.0 102378
10:00+21св3457100 0.0 1023702
13:00+24св4546100 0.0 1021981
16:00+22св5855100 0.0 1020675
19:00+21всв2563100 0.0 1019202
22:00+17с2455100 0.0 102190
5 декабря, вс
вс501:00+16с3973100 0.0 1022262
04:00+16ссв3875100 0.0 1021310
07:00+16ссв3977100 0.0 1022336
10:00+23с464647 0.0 10211178
13:00+27ссв57346 0.0 10192245
16:00+27ссв573856 0.0 10182176
19:00+25ссз384389 0.0 1018888
22:00+18с11645 0.0 102115